Location: Newark
(48.1500°N, 2.9667°W)
Time: 04:33:26
(UTC+00:00)

Explorer 7 - All Passes

Search period start: 24 January 2020 00:00
Search period end: 03 February 2020 00:00
Orbit: 485 x 679 km, 50.3° (Epoch: 23 January)

Date Brightness Start Highest point End Pass type
(mag) Time Alt. Az. Time Alt. Az. Time Alt. Az.
24 Jan - 00:06:38 10° SW 00:10:21 62° SSE 00:14:06 10° ENE night (unlit)
24 Jan - 01:47:08 10° W 01:50:52 63° N 01:54:42 10° ENE night (unlit)
24 Jan - 03:27:43 10° WNW 03:31:33 81° NNE 03:35:32 10° ESE visible
24 Jan - 05:08:18 10° W 05:11:51 33° SSW 05:15:33 10° SSE visible
24 Jan - 22:32:10 10° SSW 22:35:09 22° SE 22:38:07 10° E night (unlit)
25 Jan - 00:11:30 10° WSW 00:15:15 83° SSE 00:19:03 10° ENE night (unlit)
25 Jan - 01:52:08 10° W 01:55:52 61° N 01:59:42 10° E night (unlit)
25 Jan - 03:32:39 10° WNW 03:36:29 81° SSW 03:40:28 10° ESE visible
25 Jan - 05:13:31 10° W 05:16:37 23° SW 05:19:51 10° SSE visible
25 Jan - 22:36:31 10° SSW 22:39:55 33° SSE 22:43:20 10° E night (unlit)
26 Jan - 00:16:26 10° WSW 00:20:11 79° NNW 00:24:00 10° ENE night (unlit)
26 Jan - 01:57:08 10° WNW 02:00:52 64° N 02:04:43 10° E night (unlit)
26 Jan - 03:37:37 10° WNW 03:41:23 60° SSW 03:45:19 10° SE night (unlit)
26 Jan - 05:19:01 10° W 05:21:20 15° SW 05:23:43 10° S visible
26 Jan - 21:04:01 10° SSE 21:04:58 11° SE 21:05:55 10° ESE night (unlit)
26 Jan - 22:41:06 10° SW 22:44:45 48° SSE 22:48:23 10° ENE night (unlit)
27 Jan - 00:21:26 10° W 00:25:10 67° N 00:28:58 10° ENE night (unlit)
27 Jan - 02:02:06 10° WNW 02:05:51 72° N 02:09:44 10° E night (unlit)
27 Jan - 03:42:37 10° WNW 03:46:15 42° SSW 03:50:01 10° SE night (unlit)
27 Jan - 21:07:06 10° S 21:09:38 17° SE 21:12:09 10° E night (unlit)
27 Jan - 22:45:52 10° WSW 22:49:37 68° SSE 22:53:21 10° ENE night (unlit)
28 Jan - 00:26:26 10° W 00:30:10 61° N 00:33:57 10° ENE night (unlit)
28 Jan - 02:07:02 10° WNW 02:10:49 86° NNE 02:14:43 10° ESE night (unlit)
28 Jan - 03:47:43 10° W 03:51:03 29° SW 03:54:30 10° SSE night (unlit)
28 Jan - 21:11:10 10° SSW 21:14:22 26° SE 21:17:31 10° E night (unlit)
28 Jan - 22:50:45 10° WSW 22:54:32 90° S 22:58:18 10° ENE night (unlit)
29 Jan - 00:31:27 10° W 00:35:10 61° N 00:38:57 10° E night (unlit)
29 Jan - 02:11:59 10° WNW 02:15:45 74° SSW 02:19:37 10° ESE night (unlit)
29 Jan - 03:53:00 10° W 03:55:48 19° SW 03:58:41 10° S night (unlit)
29 Jan - 21:15:35 10° SW 21:19:10 38° SSE 21:22:40 10° E night (unlit)
29 Jan - 22:55:43 10° W 22:59:29 74° NNW 23:03:15 10° ENE night (unlit)
30 Jan - 00:36:26 10° WNW 00:40:10 65° N 00:43:58 10° E night (unlit)
30 Jan - 02:16:57 10° WNW 02:20:38 53° SSW 02:24:25 10° SE night (unlit)
30 Jan - 03:58:47 10° WSW 04:00:30 13° SW 04:02:14 10° SSW night (unlit)
30 Jan - 19:42:18 10° SSE 19:44:08 13° SE 19:45:55 10° ESE visible
30 Jan - 21:20:14 10° SW 21:24:00 54° SSE 21:27:41 10° ENE night (unlit)
30 Jan - 23:00:43 10° W 23:04:28 65° N 23:08:13 10° ENE night (unlit)
31 Jan - 00:41:23 10° WNW 00:45:09 75° NNE 00:48:58 10° E night (unlit)
31 Jan - 02:21:58 10° W 02:25:28 36° SSW 02:29:03 10° SE night (unlit)
31 Jan - 19:45:55 10° S 19:48:49 20° SE 19:51:39 10° E visible
31 Jan - 21:25:03 10° WSW 21:28:53 76° SSE 21:32:39 10° ENE night (unlit)
31 Jan - 23:05:43 10° W 23:09:29 61° N 23:13:12 10° E night (unlit)
01 Feb - 00:46:20 10° WNW 00:50:06 88° SSW 00:53:55 10° ESE night (unlit)
01 Feb - 02:27:07 10° W 02:30:15 25° SW 02:33:27 10° SSE night (unlit)
01 Feb - 19:50:08 10° SSW 19:53:35 29° SE 19:56:56 10° E visible
01 Feb - 21:29:58 10° WSW 21:33:49 85° NNW 21:37:36 10° ENE night (unlit)
01 Feb - 23:10:43 10° WNW 23:14:29 62° N 23:18:12 10° E night (unlit)
02 Feb - 00:51:17 10° WNW 00:55:00 67° SSW 00:58:48 10° ESE night (unlit)
02 Feb - 02:32:32 10° W 02:34:59 17° SW 02:37:29 10° S night (unlit)
02 Feb - 19:54:38 10° SW 19:58:24 43° SSE 20:02:01 10° ENE visible
02 Feb - 21:34:56 10° W 21:38:47 71° N 21:42:32 10° ENE night (unlit)
02 Feb - 23:15:42 10° WNW 23:19:28 68° N 23:23:13 10° E night (unlit)
